Weather History for K1A6 - December, 2013

Change the Weather History Date:

Wednesday, December 4, 2013

  Actual Average (KLOZ) Record (KLOZ)
Temperature  
Mean Temperature 54 °F 41 °F  
Max Temperature 65 °F 51 °F 77 °F (1982)
Min Temperature 43 °F 32 °F 13 °F (2000)
Degree Days  
Heating Degree Days 11 24  
Month to date heating degree days 93  
Since 1 July heating degree days 923  
Cooling Degree Days 0 0  
Month to date cooling degree days 0  
Growing Degree Days 4 (Base 50)    
Moisture  
Dew Point 52 °F    
Average Humidity 83    
Maximum Humidity 100    
Minimum Humidity 70    
Precipitation  
Precipitation 0.00 in 0.14 in 2.28 in (1993)
Month to date precipitation 0.57  
Sea Level Pressure  
Sea Level Pressure 29.93 in    
Wind  
Wind Speed 3 mph (South)    
Max Wind Speed 17 mph    
Max Gust Speed 30 mph    
Visibility 8 miles    
Events Rain    
T = Trace of Precipitation, MM = Missing Value Source: NWS Daily Summary

Daily Weather History Graph

Daily Weather History Graph

Search for Another Location

Airport or City:

Trip Planner

Search our weather history database for the weather conditions in past years. The results will help you decide how hot, cold, wet, or windy it might be!

Date:

Astronomy

Dec. 04, 2013 Rise Set
Actual Time 6:31 AM CST 4:18 PM CST
Civil Twilight 6:02 AM CST 4:47 PM CST
Nautical Twilight 5:30 AM CST 5:19 PM CST
Astronomical Twilight 4:59 AM CST 5:50 PM CST
Moon 7:59 AM CST (12/4) 6:26 PM CST (12/4)
Length of Visible Light 10h 44m
Length of Day
9h 47m
Waxing Crescent, 4% of the Moon is Illuminated
Dec 4
Waxing Crescent
Dec 9
First Quarter
Dec 17
Full
Dec 25
Last Quarter
Jan 1
New

Hourly Weather History & Observations

Time (CST) Temp. Dew Point Humidity Pressure Visibility Wind Dir Wind Speed Gust Speed Precip Events Conditions
12:15 AM 43.0 °F 42.8 °F 99% 29.90 in 4.0 mi Calm Calm - N/A   Mostly Cloudy
12:35 AM 43.3 °F 43.3 °F 100% 29.90 in 3.0 mi Calm Calm - N/A   Overcast
12:55 AM 43.7 °F 43.7 °F 100% 29.91 in 5.0 mi Calm Calm - N/A   Overcast
1:15 AM 44.1 °F 43.9 °F 99% 29.90 in 5.0 mi Calm Calm - N/A   Overcast
1:35 AM 45.0 °F 44.4 °F 98% 29.90 in 5.0 mi Calm Calm - N/A   Overcast
1:55 AM 45.5 °F 45.0 °F 98% 29.91 in 5.0 mi Calm Calm - N/A   Overcast
2:15 AM 45.5 °F 45.0 °F 98% 29.90 in 7.0 mi Calm Calm - N/A   Overcast
2:35 AM 46.4 °F 45.5 °F 97% 29.90 in 7.0 mi Calm Calm - N/A   Overcast
2:55 AM 46.8 °F 45.9 °F 97% 29.91 in 7.0 mi Calm Calm - N/A   Overcast
3:15 AM 46.6 °F 46.0 °F 98% 29.91 in 7.0 mi Calm Calm - N/A   Overcast
3:35 AM 47.3 °F 46.4 °F 97% 29.92 in 7.0 mi Calm Calm - N/A   Overcast
3:55 AM 47.5 °F 46.8 °F 97% 29.92 in 7.0 mi Calm Calm - N/A   Overcast
4:15 AM 47.7 °F 46.9 °F 97% 29.92 in 7.0 mi Calm Calm - N/A   Overcast
4:35 AM 47.7 °F 46.9 °F 97% 29.93 in 5.0 mi Calm Calm - N/A   Overcast
4:55 AM 48.2 °F 47.3 °F 97% 29.93 in 5.0 mi Calm Calm - N/A   Overcast
5:15 AM 48.0 °F 47.3 °F 97% 29.93 in 5.0 mi Calm Calm - N/A   Overcast
5:35 AM 48.2 °F 47.7 °F 98% 29.93 in 5.0 mi Calm Calm - N/A   Overcast
5:55 AM 48.9 °F 48.2 °F 97% 29.94 in 7.0 mi Calm Calm - N/A   Overcast
6:15 AM 49.1 °F 48.2 °F 97% 29.93 in 7.0 mi Calm Calm - N/A   Overcast
6:35 AM 49.3 °F 48.6 °F 97% 29.94 in 5.0 mi Calm Calm - N/A   Overcast
6:55 AM 49.3 °F 48.9 °F 99% 29.94 in 5.0 mi Calm Calm - N/A   Overcast
7:15 AM 50.0 °F 49.1 °F 97% 29.95 in 5.0 mi Calm Calm - N/A   Overcast
7:35 AM 50.0 °F 49.1 °F 97% 29.96 in 5.0 mi Calm Calm - N/A   Overcast
7:55 AM 51.3 °F 49.6 °F 94% 29.97 in 7.0 mi Calm Calm - N/A   Overcast
8:15 AM 52.5 °F 49.8 °F 91% 29.97 in 7.0 mi Calm Calm - N/A   Overcast
8:35 AM 54.1 °F 51.1 °F 89% 29.98 in 10.0 mi Calm Calm - N/A   Overcast
8:55 AM 56.1 °F 51.3 °F 84% 29.97 in 10.0 mi Calm Calm - N/A   Overcast
9:15 AM 57.6 °F 50.0 °F 76% 29.98 in 10.0 mi Calm Calm - N/A   Overcast
9:35 AM 58.6 °F 50.5 °F 74% 29.98 in 10.0 mi Calm Calm - N/A   Overcast
9:55 AM 59.0 °F 50.7 °F 74% 29.97 in 10.0 mi SSW 4.6 mph - N/A   Overcast
10:15 AM 59.5 °F 50.9 °F 73% 29.97 in 10.0 mi South 6.9 mph - N/A   Overcast
10:35 AM 59.9 °F 51.1 °F 73% 29.96 in 10.0 mi SSE 6.9 mph - N/A   Overcast
10:55 AM 60.8 °F 51.1 °F 70% 29.94 in 10.0 mi South 10.4 mph - N/A   Overcast
11:15 AM 60.3 °F 51.8 °F 74% 29.93 in 10.0 mi South 8.1 mph - N/A   Overcast
11:35 AM 60.4 °F 51.3 °F 72% 29.93 in 10.0 mi SSW 5.8 mph - N/A   Overcast
11:55 AM 60.8 °F 51.3 °F 71% 29.93 in 10.0 mi South 4.6 mph - N/A   Overcast
12:15 PM 60.3 °F 52.0 °F 74% 29.92 in 10.0 mi SSE 5.8 mph - N/A Rain Light Rain
12:35 PM 61.2 °F 52.2 °F 72% 29.91 in 10.0 mi SSE 4.6 mph - N/A   Overcast
12:55 PM 62.1 °F 52.9 °F 72% 29.90 in 10.0 mi South 5.8 mph - N/A   Overcast
1:15 PM 62.6 °F 53.1 °F 71% 29.90 in 10.0 mi SSE 5.8 mph - N/A   Overcast
1:35 PM 62.8 °F 53.6 °F 72% 29.90 in 10.0 mi South 6.9 mph - N/A   Overcast
1:55 PM 63.1 °F 53.8 °F 71% 29.90 in 10.0 mi South 3.5 mph - N/A   Overcast
2:15 PM 62.8 °F 54.0 °F 73% 29.90 in 10.0 mi Calm Calm - N/A   Overcast
2:35 PM 63.1 °F 54.1 °F 72% 29.90 in 10.0 mi SE 4.6 mph - N/A   Overcast
2:55 PM 64.0 °F 55.0 °F 73% 29.90 in 10.0 mi SE 3.5 mph - N/A   Mostly Cloudy
3:15 PM 63.9 °F 55.4 °F 74% 29.90 in 10.0 mi South 6.9 mph - N/A   Mostly Cloudy
3:35 PM 63.7 °F 55.6 °F 75% 29.90 in 10.0 mi South 10.4 mph 17.3 mph N/A   Mostly Cloudy
3:55 PM 63.9 °F 55.8 °F 75% 29.89 in 10.0 mi South 4.6 mph - N/A   Mostly Cloudy
4:15 PM 63.5 °F 55.8 °F 76% 29.90 in 10.0 mi South 6.9 mph - N/A   Mostly Cloudy
4:35 PM 63.3 °F 55.8 °F 76% 29.91 in 10.0 mi South 4.6 mph - N/A   Mostly Cloudy
4:55 PM 63.0 °F 55.8 °F 77% 29.90 in 10.0 mi Calm Calm - N/A   Mostly Cloudy
5:15 PM 62.6 °F 55.8 °F 78% 29.90 in 10.0 mi Calm Calm - N/A   Overcast
5:35 PM 62.2 °F 55.6 °F 79% 29.91 in 10.0 mi Calm Calm - N/A   Mostly Cloudy
5:55 PM 63.3 °F 55.9 °F 77% 29.91 in 10.0 mi Calm Calm - N/A   Mostly Cloudy
6:15 PM 62.4 °F 55.8 °F 79% 29.92 in 10.0 mi South 5.8 mph - N/A   Scattered Clouds
6:35 PM 63.9 °F 55.9 °F 75% 29.93 in 10.0 mi South 8.1 mph - N/A   Scattered Clouds
6:55 PM 64.6 °F 55.9 °F 74% 29.92 in 10.0 mi South 8.1 mph - N/A   Mostly Cloudy
7:15 PM 64.6 °F 56.1 °F 74% 29.92 in 10.0 mi SSW 10.4 mph - N/A   Mostly Cloudy
7:35 PM 64.8 °F 55.9 °F 73% 29.93 in 10.0 mi SSW 9.2 mph 17.3 mph N/A   Scattered Clouds
7:55 PM 64.8 °F 56.1 °F 74% 29.93 in 10.0 mi South 13.8 mph 24.2 mph N/A   Scattered Clouds
8:15 PM 64.8 °F 56.3 °F 74% 29.93 in 10.0 mi South 9.2 mph 18.4 mph N/A   Scattered Clouds
8:35 PM 64.6 °F 56.3 °F 74% 29.94 in 10.0 mi SSW 13.8 mph 20.7 mph N/A   Scattered Clouds
8:55 PM 65.1 °F 56.3 °F 73% 29.94 in 10.0 mi SSW 13.8 mph 26.5 mph N/A   Clear
9:15 PM 65.3 °F 56.5 °F 73% 29.95 in 10.0 mi SSW 11.5 mph 29.9 mph N/A   Clear
9:35 PM 64.6 °F 56.7 °F 75% 29.96 in 10.0 mi SSW 11.5 mph 24.2 mph N/A   Clear
9:55 PM 64.6 °F 56.8 °F 76% 29.96 in 10.0 mi SSW 17.3 mph 23.0 mph N/A   Clear
10:15 PM 64.4 °F 56.8 °F 76% 29.97 in 10.0 mi SSW 8.1 mph 23.0 mph N/A   Clear
10:35 PM 64.6 °F 56.8 °F 76% 29.96 in 10.0 mi SSW 5.8 mph - N/A   Clear
10:55 PM 64.6 °F 57.0 °F 76% 29.97 in 10.0 mi SW 8.1 mph 17.3 mph N/A   Clear
11:15 PM 64.9 °F 57.2 °F 76% 29.97 in 10.0 mi SSW 8.1 mph 24.2 mph N/A   Scattered Clouds
11:35 PM 64.2 °F 57.2 °F 78% 29.95 in 10.0 mi South 12.7 mph 20.7 mph N/A   Scattered Clouds
11:55 PM 63.7 °F 57.2 °F 79% 29.95 in 10.0 mi SSW 8.1 mph 19.6 mph N/A   Clear